Home   Weather   Oakville   Past weeks

Flag for Canada Past Weather in Oakville, Ontario, Canada — Yesterday and Last 2 Weeks

Now
40 °F

Chilly.


Feels Like: 36 °F
Forecast: 36 / 42 °F
Wind: 5 mph from West

Location: Burlington Piers

Current Time: Dec 3, 2016 at 8:45:10 am

Latest Report: Dec 3, 2016 at 8:00 am


Visibility: N/A

Pressure: 30.18 "Hg

Humidity: 73%

Dew Point: 31 °F

Location of OakvilleLocation

Past Weather in Oakville — Graph

°F

Oakville Temperature Yesterday

Maximum temperature yesterday: 44 °F (at 1:00 am)
Minimum temperature yesterday: 39 °F (at 6:00 pm)
Average temperature yesterday: 41 °F

High & Low Weather Summary for the Past Weeks

 TemperatureHumidityPressure
High68 °F (Nov 18, 4:00 pm)100% (Nov 25, 2:00 am)30.38 "Hg (Nov 25, 2:00 am)
Low28 °F (Nov 23, 7:00 am)44% (Nov 18, 4:00 pm)29.44 "Hg (Nov 30, 10:00 pm)
Average41 °F75%29.97 "Hg
* Reported Nov 18 7:00 am — Dec 3 7:00 am, Oakville, Weather by CustomWeather, © 2016

Note: Actual official high and low records may vary slightly from our data, if they occured in-between our weather recording intervals... More about our weather records

Advertising

Oakville Weather History for the Previous 24 Hours

Scroll right to see more
 ConditionsComfort  
Time TempWeatherWind HumidityBarometerVisibility
7:00 am
Sat, Dec 3
40 °FChilly.6 mph77%30.17 "HgN/A
6:00 am39 °FChilly.6 mph74%30.16 "HgN/A
5:00 am39 °FChilly.5 mph76%30.14 "HgN/A
4:00 am39 °FChilly.9 mph75%30.13 "HgN/A
3:00 am38 °FChilly.7 mph80%30.13 "HgN/A
2:00 am36 °FChilly.7 mph79%30.11 "HgN/A
1:00 am38 °FChilly.6 mph77%30.10 "HgN/A
12:00 am38 °FChilly.9 mph76%30.09 "HgN/A
11:00 pm
Fri, Dec 2
39 °FChilly.9 mph72%30.08 "HgN/A
10:00 pm40 °FChilly.7 mph73%30.06 "HgN/A
9:00 pm40 °FChilly.5 mph77%30.02 "HgN/A
8:00 pm40 °FChilly.6 mph74%30.01 "HgN/A
7:00 pm40 °FChilly.6 mph80%29.99 "HgN/A
6:00 pm39 °FChilly.7 mph83%29.98 "HgN/A
5:00 pm40 °FChilly.13 mph73%29.95 "HgN/A
4:00 pm41 °FQuite cool.12 mph73%29.93 "HgN/A
3:00 pm41 °FQuite cool.12 mph65%29.92 "HgN/A
2:00 pm41 °FQuite cool.14 mph61%29.90 "HgN/A
1:00 pm41 °FQuite cool.14 mph62%29.90 "HgN/A
12:00 pm41 °FQuite cool.15 mph56%29.90 "HgN/A
11:00 am42 °FQuite cool.14 mph60%29.90 "HgN/A
10:00 am42 °FQuite cool.15 mph65%29.89 "HgN/A
9:00 am42 °FQuite cool.10 mph68%29.88 "HgN/A
8:00 am42 °FQuite cool.8 mph73%29.87 "HgN/A
Weather by CustomWeather, © 2016

See weather overviewHow to use our weather pages